Location: San Vito
(41.8833°N, 12.9833°E)
Time: 09:28:14
(UTC+00:00)

SKYMED 2 - Pass Details

Date: 17 November 2019
Orbit: 621 x 623 km, 97.9° (Epoch: 11 December)

Event Time Altitude Azimuth Distance (km) Brightness Sun altitude
Rises 04:21:36 0° 167° (SSE) 2,889 7.3 -18.2°
Reaches altitude 10° 04:23:47 10° 168° (SSE) 1,987 6.4 -17.8°
Maximum altitude 04:28:07 85° 257° (WSW) 631 3.5 -17.0°
Drops below altitude 10° 04:32:29 10° 346° (NNW) 2,002 5.9 -16.2°
Enters shadow 04:34:37 - 347° (NNW) 2,886 6.8 -15.8°
